Home > Weather > Victoria > Past weeks

Flag for Canada Past Weather in Victoria, British Columbia, Canada — Yesterday and Last 2 Weeks

Now
70 °F

Passing clouds.


Feels Like: 70 °F
Forecast: 59 / 77 °F
Wind: 6 mph from Southwest

Location: Victoria Int. Airportb. C.

Current Time: Aug 25, 2016 at 1:20:10 AM

Latest Report: Aug 25, 2016 at 12:00 AM


Visibility: 30 mi

Pressure: 30.13 "Hg

Humidity: 46%

Dew Point: 48 °F

Location of VictoriaLocation

Past Weather in Victoria — Graph

°F

Victoria Temperature Yesterday

Maximum temperature yesterday: 84 °F (at 5:00 PM)
Minimum temperature yesterday: 55 °F (at 5:00 AM)
Average temperature yesterday: 69 °F

High & Low Weather Summary for the Past Weeks

 TemperatureHumidityPressure
High90 °F (Aug 18, 4:00 PM)94% (Aug 10, 6:00 AM)30.26 "Hg (Aug 10, 6:00 AM)
Low54 °F (Aug 17, 4:00 AM)20% (Aug 19, 6:00 PM)29.77 "Hg (Aug 21, 5:00 AM)
Average67 °F67%30.04 "Hg
* Reported Aug 10 12:00 AM — Aug 25 12:00 AM, Victoria, Weather by CustomWeather, © 2016

Note: Actual official high and low records may vary slightly from our data, if they occured in-between our weather recording intervals... More about our weather records

Advertising

Victoria Weather History for the Previous 24 Hours

Scroll right to see more
 ConditionsComfort  
Time TempWeatherWind HumidityBarometerVisibility
12:00 AM
Thu, Aug 25
70 °FPassing clouds.6 mph46%30.13 "Hg30 mi
11:00 PM
Wed, Aug 24
64 °FPassing clouds.2 mph68%30.12 "Hg30 mi
10:00 PM68 °FPassing clouds.2 mph56%30.13 "Hg30 mi
9:00 PM68 °FPassing clouds.2 mph56%30.14 "Hg30 mi
8:00 PM73 °FPassing clouds.6 mph47%30.13 "Hg30 mi
7:00 PM81 °FPassing clouds.2 mph37%30.13 "Hg30 mi
6:00 PM82 °FPassing clouds.3 mph35%30.14 "Hg30 mi
5:00 PM84 °FPassing clouds.3 mph33%30.15 "Hg30 mi
4:00 PM82 °FPassing clouds.6 mph37%30.17 "Hg30 mi
3:00 PM81 °FPassing clouds.9 mph39%30.19 "Hg30 mi
2:00 PM81 °FPassing clouds.7 mph39%30.21 "Hg30 mi
1:00 PM77 °FPassing clouds.7 mph47%30.23 "Hg30 mi
12:00 PM75 °FPassing clouds.6 mph50%30.24 "Hg30 mi
11:00 AM73 °FPassing clouds.5 mph50%30.25 "Hg30 mi
10:00 AM72 °FPassing clouds.2 mph50%30.26 "Hg30 mi
9:00 AM68 °FPassing clouds.5 mph53%30.26 "Hg30 mi
8:00 AM63 °FPassing clouds.3 mph68%30.26 "Hg30 mi
7:00 AM57 °FPassing clouds.3 mph88%30.25 "Hg30 mi
6:00 AM55 °FPassing clouds.5 mph82%30.24 "Hg30 mi
5:00 AM55 °FPassing clouds.No wind82%30.22 "Hg30 mi
4:00 AM57 °FPassing clouds.3 mph82%30.22 "Hg30 mi
3:00 AM57 °FClear.3 mph88%30.20 "Hg30 mi
2:00 AM57 °FClear.5 mph82%30.20 "Hg30 mi
1:00 AM57 °FClear.2 mph82%30.19 "Hg30 mi
Weather by CustomWeather, © 2016

See weather overviewHow to use our weather pages